Time,TemperatureF,DewpointF,PressureIn,WindDirection,WindDirectionDegrees,WindSpeedMPH,WindSpeedGustMPH,Humidity,HourlyPrecipIn,Conditions,Clouds,dailyrainin,SoftwareType,DateUTC
2013-08-17 00:01:00,65.3,59.0,30.03,West,281,0.0,6.0,80,0.00,,,0.00,VWS V14.01,2013-08-17 04:01:00,
2013-08-17 00:02:00,65.3,59.0,30.03,West,281,0.0,6.0,80,0.00,,,0.00,VWS V14.01,2013-08-17 04:02:00,
2013-08-17 00:03:00,65.3,59.0,30.03,West,281,0.0,6.0,80,0.00,,,0.00,VWS V14.01,2013-08-17 04:03:00,
2013-08-17 00:04:00,65.3,59.7,30.03,West,281,0.0,6.0,82,0.00,,,0.00,VWS V14.01,2013-08-17 04:04:00,
2013-08-17 00:05:00,65.2,59.9,30.03,West,281,0.0,6.0,83,0.00,,,0.00,VWS V14.01,2013-08-17 04:05:00,
2013-08-17 00:10:00,65.0,58.3,30.03,NW,312,2.0,6.0,79,0.00,,,0.00,VWS V14.01,2013-08-17 04:10:00,
2013-08-17 00:16:00,65.0,58.3,30.03,West,275,1.0,6.0,79,0.00,,,0.00,VWS V14.01,2013-08-17 04:16:00,
2013-08-17 00:21:00,65.0,59.4,30.02,West,275,0.0,6.0,82,0.00,,,0.00,VWS V14.01,2013-08-17 04:21:00,
2013-08-17 00:26:00,64.7,59.4,30.02,West,275,0.0,6.0,83,0.00,,,0.00,VWS V14.01,2013-08-17 04:26:00,
2013-08-17 00:31:00,64.3,59.0,30.02,West,275,0.0,6.0,83,0.00,,,0.00,VWS V14.01,2013-08-17 04:31:00,
2013-08-17 00:36:00,64.0,58.7,30.02,West,275,0.0,6.0,83,0.00,,,0.00,VWS V14.01,2013-08-17 04:36:00,
2013-08-17 00:41:00,63.7,58.1,30.02,West,275,0.0,6.0,82,0.00,,,0.00,VWS V14.01,2013-08-17 04:41:00,
2013-08-17 00:46:00,63.9,57.6,30.02,WNW,292,0.0,6.0,80,0.00,,,0.00,VWS V14.01,2013-08-17 04:46:00,
2013-08-17 00:51:00,64.2,57.6,30.02,WNW,292,0.0,6.0,79,0.00,,,0.00,VWS V14.01,2013-08-17 04:51:00,
2013-08-17 00:56:00,64.3,57.3,30.02,West,259,0.0,6.0,78,0.00,,,0.00,VWS V14.01,2013-08-17 04:56:00,
2013-08-17 01:01:00,64.3,58.0,30.02,West,259,0.0,6.0,80,0.00,,,0.00,VWS V14.01,2013-08-17 05:01:00,
2013-08-17 01:06:00,64.2,58.6,30.02,West,259,0.0,6.0,82,0.00,,,0.00,VWS V14.01,2013-08-17 05:06:00,
2013-08-17 01:11:00,63.9,58.0,30.02,West,259,0.0,6.0,81,0.00,,,0.00,VWS V14.01,2013-08-17 05:11:00,
2013-08-17 01:16:00,63.5,57.9,30.02,West,259,0.0,6.0,82,0.00,,,0.00,VWS V14.01,2013-08-17 05:16:00,
2013-08-17 01:21:00,63.2,58.0,30.02,West,259,0.0,6.0,83,0.00,,,0.00,VWS V14.01,2013-08-17 05:21:00,
2013-08-17 01:26:00,63.1,57.9,30.02,West,259,0.0,6.0,83,0.00,,,0.00,VWS V14.01,2013-08-17 05:26:00,
2013-08-17 01:31:00,63.1,57.9,30.02,West,259,0.0,6.0,83,0.00,,,0.00,VWS V14.01,2013-08-17 05:31:00,
2013-08-17 01:36:00,63.1,58.2,30.01,West,259,0.0,6.0,84,0.00,,,0.00,VWS V14.01,2013-08-17 05:36:00,
2013-08-17 01:41:00,62.9,58.3,30.01,West,259,0.0,6.0,85,0.00,,,0.00,VWS V14.01,2013-08-17 05:41:00,
2013-08-17 01:46:00,62.6,58.4,30.01,West,259,0.0,6.0,86,0.00,,,0.00,VWS V14.01,2013-08-17 05:46:00,
2013-08-17 01:51:00,62.1,57.9,30.01,West,259,0.0,6.0,86,0.00,,,0.00,VWS V14.01,2013-08-17 05:51:00,
2013-08-17 01:56:00,61.8,57.9,30.01,West,259,0.0,6.0,87,0.00,,,0.00,VWS V14.01,2013-08-17 05:56:00,
2013-08-17 02:01:00,61.6,58.0,30.01,West,259,0.0,6.0,88,0.00,,,0.00,VWS V14.01,2013-08-17 06:01:00,
2013-08-17 02:06:00,61.5,57.9,30.02,West,259,0.0,6.0,88,0.00,,,0.00,VWS V14.01,2013-08-17 06:06:00,
2013-08-17 02:11:00,61.5,57.9,30.02,West,259,0.0,6.0,88,0.00,,,0.00,VWS V14.01,2013-08-17 06:11:00,
2013-08-17 02:16:00,61.3,57.7,30.02,West,259,0.0,6.0,88,0.00,,,0.00,VWS V14.01,2013-08-17 06:16:00,
2013-08-17 02:21:00,61.3,58.0,30.01,West,259,0.0,6.0,89,0.00,,,0.00,VWS V14.01,2013-08-17 06:21:00,
2013-08-17 02:26:00,61.2,57.9,30.01,West,259,0.0,6.0,89,0.00,,,0.00,VWS V14.01,2013-08-17 06:26:00,
2013-08-17 02:31:00,61.0,57.7,30.01,West,259,0.0,6.0,89,0.00,,,0.00,VWS V14.01,2013-08-17 06:31:00,
2013-08-17 02:36:00,61.0,58.0,30.02,West,259,0.0,6.0,90,0.00,,,0.00,VWS V14.01,2013-08-17 06:36:00,
2013-08-17 02:41:00,60.9,58.0,30.02,West,259,0.0,6.0,90,0.00,,,0.00,VWS V14.01,2013-08-17 06:41:00,
2013-08-17 02:46:00,60.7,57.8,30.02,West,259,0.0,6.0,90,0.00,,,0.00,VWS V14.01,2013-08-17 06:46:00,
2013-08-17 02:51:00,60.5,57.6,30.02,West,259,0.0,6.0,90,0.00,,,0.00,VWS V14.01,2013-08-17 06:51:00,
2013-08-17 02:56:00,60.5,57.9,30.02,West,259,0.0,6.0,91,0.00,,,0.00,VWS V14.01,2013-08-17 06:56:00,
2013-08-17 03:01:00,60.4,57.8,30.02,West,259,0.0,6.0,91,0.00,,,0.00,VWS V14.01,2013-08-17 07:01:00,
2013-08-17 03:06:00,60.2,57.6,30.02,West,259,0.0,6.0,91,0.00,,,0.00,VWS V14.01,2013-08-17 07:06:00,
2013-08-17 03:12:00,60.2,57.9,30.02,West,259,0.0,6.0,92,0.00,,,0.00,VWS V14.01,2013-08-17 07:12:00,
2013-08-17 03:17:00,60.2,57.9,30.02,West,259,0.0,6.0,92,0.00,,,0.00,VWS V14.01,2013-08-17 07:17:00,
2013-08-17 03:22:00,60.1,57.8,30.02,West,259,0.0,6.0,92,0.00,,,0.00,VWS V14.01,2013-08-17 07:22:00,
2013-08-17 03:27:00,60.1,57.8,30.02,West,259,0.0,6.0,92,0.00,,,0.00,VWS V14.01,2013-08-17 07:27:00,
2013-08-17 03:32:00,59.9,57.6,30.02,West,259,0.0,6.0,92,0.00,,,0.00,VWS V14.01,2013-08-17 07:32:00,
2013-08-17 03:37:00,59.8,57.5,30.02,West,259,0.0,6.0,92,0.00,,,0.00,VWS V14.01,2013-08-17 07:37:00,
2013-08-17 03:42:00,59.8,57.5,30.02,West,259,0.0,6.0,92,0.00,,,0.00,VWS V14.01,2013-08-17 07:42:00,
2013-08-17 03:47:00,59.6,57.3,30.02,West,259,0.0,6.0,92,0.00,,,0.00,VWS V14.01,2013-08-17 07:47:00,
2013-08-17 03:52:00,59.5,57.2,30.03,West,259,0.0,6.0,92,0.00,,,0.00,VWS V14.01,2013-08-17 07:52:00,
2013-08-17 03:57:00,59.5,57.5,30.03,West,259,0.0,6.0,93,0.00,,,0.00,VWS V14.01,2013-08-17 07:57:00,
2013-08-17 04:02:00,59.3,57.3,30.03,West,259,0.0,6.0,93,0.00,,,0.00,VWS V14.01,2013-08-17 08:02:00,
2013-08-17 04:07:00,59.3,57.3,30.04,West,259,0.0,6.0,93,0.00,,,0.00,VWS V14.01,2013-08-17 08:07:00,
2013-08-17 04:12:00,59.2,57.2,30.04,West,259,0.0,6.0,93,0.00,,,0.00,VWS V14.01,2013-08-17 08:12:00,
2013-08-17 04:17:00,59.0,57.0,30.04,West,259,0.0,6.0,93,0.00,,,0.00,VWS V14.01,2013-08-17 08:17:00,
2013-08-17 04:22:00,59.0,57.0,30.03,West,259,0.0,6.0,93,0.00,,,0.00,VWS V14.01,2013-08-17 08:22:00,
2013-08-17 04:27:00,58.9,56.9,30.03,West,259,0.0,6.0,93,0.00,,,0.00,VWS V14.01,2013-08-17 08:27:00,
2013-08-17 04:32:00,58.9,56.9,30.03,West,259,0.0,6.0,93,0.00,,,0.00,VWS V14.01,2013-08-17 08:32:00,
2013-08-17 04:37:00,58.9,56.9,30.03,West,259,0.0,6.0,93,0.00,,,0.00,VWS V14.01,2013-08-17 08:37:00,
2013-08-17 04:42:00,58.7,57.0,30.03,West,259,0.0,6.0,94,0.00,,,0.00,VWS V14.01,2013-08-17 08:42:00,
2013-08-17 04:47:00,58.7,57.0,30.03,West,259,0.0,6.0,94,0.00,,,0.00,VWS V14.01,2013-08-17 08:47:00,
2013-08-17 04:52:00,58.6,56.9,30.03,West,259,0.0,6.0,94,0.00,,,0.00,VWS V14.01,2013-08-17 08:52:00,
2013-08-17 04:57:00,58.4,56.7,30.03,West,259,0.0,6.0,94,0.00,,,0.00,VWS V14.01,2013-08-17 08:57:00,
2013-08-17 05:02:00,58.4,56.7,30.03,West,259,0.0,6.0,94,0.00,,,0.00,VWS V14.01,2013-08-17 09:02:00,
2013-08-17 05:07:00,58.4,56.7,30.03,West,259,0.0,6.0,94,0.00,,,0.00,VWS V14.01,2013-08-17 09:07:00,
2013-08-17 05:12:00,58.3,56.6,30.03,West,259,0.0,6.0,94,0.00,,,0.00,VWS V14.01,2013-08-17 09:12:00,
2013-08-17 05:17:00,58.3,56.6,30.03,West,259,0.0,6.0,94,0.00,,,0.00,VWS V14.01,2013-08-17 09:17:00,
2013-08-17 05:22:00,58.3,56.6,30.04,West,259,0.0,6.0,94,0.00,,,0.00,VWS V14.01,2013-08-17 09:22:00,
2013-08-17 05:27:00,58.3,56.6,30.04,West,259,0.0,6.0,94,0.00,,,0.00,VWS V14.01,2013-08-17 09:27:00,
2013-08-17 05:32:00,58.3,56.6,30.04,West,259,0.0,6.0,94,0.00,,,0.00,VWS V14.01,2013-08-17 09:32:00,
2013-08-17 05:37:00,58.4,56.7,30.05,West,259,0.0,6.0,94,0.00,,,0.00,VWS V14.01,2013-08-17 09:37:00,
2013-08-17 05:42:00,58.4,56.7,30.05,West,259,0.0,6.0,94,0.00,,,0.00,VWS V14.01,2013-08-17 09:42:00,
2013-08-17 05:47:00,58.4,56.7,30.05,West,259,0.0,6.0,94,0.00,,,0.00,VWS V14.01,2013-08-17 09:47:00,
2013-08-17 05:52:00,58.4,56.7,30.04,West,259,0.0,6.0,94,0.00,,,0.00,VWS V14.01,2013-08-17 09:52:00,
2013-08-17 05:57:00,58.4,56.7,30.04,West,259,0.0,6.0,94,0.00,,,0.00,VWS V14.01,2013-08-17 09:57:00,
2013-08-17 06:02:00,58.6,56.9,30.04,West,259,0.0,6.0,94,0.00,,,0.00,VWS V14.01,2013-08-17 10:02:00,
2013-08-17 06:07:00,58.6,56.9,30.04,West,259,0.0,6.0,94,0.00,,,0.00,VWS V14.01,2013-08-17 10:07:00,
2013-08-17 06:12:00,58.4,56.7,30.04,West,259,0.0,6.0,94,0.00,,,0.00,VWS V14.01,2013-08-17 10:12:00,
2013-08-17 06:17:00,58.4,56.7,30.04,West,259,0.0,6.0,94,0.00,,,0.00,VWS V14.01,2013-08-17 10:17:00,
2013-08-17 06:22:00,58.4,56.7,30.05,West,259,0.0,6.0,94,0.00,,,0.00,VWS V14.01,2013-08-17 10:22:00,
2013-08-17 06:28:00,58.4,56.7,30.05,West,259,0.0,6.0,94,0.00,,,0.00,VWS V14.01,2013-08-17 10:28:00,
2013-08-17 06:33:00,58.3,56.3,30.05,West,259,0.0,6.0,93,0.00,,,0.00,VWS V14.01,2013-08-17 10:33:00,
2013-08-17 06:38:00,58.3,56.3,30.05,West,259,0.0,6.0,93,0.00,,,0.00,VWS V14.01,2013-08-17 10:38:00,
2013-08-17 06:43:00,58.1,56.1,30.05,West,259,0.0,6.0,93,0.00,,,0.00,VWS V14.01,2013-08-17 10:43:00,
2013-08-17 06:48:00,58.1,56.1,30.05,West,259,0.0,6.0,93,0.00,,,0.00,VWS V14.01,2013-08-17 10:48:00,
2013-08-17 06:53:00,58.0,56.0,30.05,West,259,0.0,6.0,93,0.00,,,0.00,VWS V14.01,2013-08-17 10:53:00,
2013-08-17 06:58:00,58.0,56.3,30.05,West,259,0.0,6.0,94,0.00,,,0.00,VWS V14.01,2013-08-17 10:58:00,
2013-08-17 07:03:00,58.0,56.3,30.05,West,259,0.0,6.0,94,0.00,,,0.00,VWS V14.01,2013-08-17 11:03:00,
2013-08-17 07:08:00,58.0,56.3,30.05,West,259,0.0,6.0,94,0.00,,,0.00,VWS V14.01,2013-08-17 11:08:00,
2013-08-17 07:13:00,58.0,56.3,30.05,West,259,0.0,6.0,94,0.00,,,0.00,VWS V14.01,2013-08-17 11:13:00,
2013-08-17 07:18:00,58.0,56.3,30.05,West,259,0.0,6.0,94,0.00,,,0.00,VWS V14.01,2013-08-17 11:18:00,
2013-08-17 07:23:00,58.0,56.3,30.06,West,259,0.0,6.0,94,0.00,,,0.00,VWS V14.01,2013-08-17 11:23:00,
2013-08-17 07:28:00,58.0,56.3,30.06,West,259,0.0,6.0,94,0.00,,,0.00,VWS V14.01,2013-08-17 11:28:00,
2013-08-17 07:33:00,58.1,56.4,30.06,West,259,0.0,6.0,94,0.00,,,0.00,VWS V14.01,2013-08-17 11:33:00,
2013-08-17 07:38:00,58.1,56.4,30.06,West,259,0.0,6.0,94,0.00,,,0.00,VWS V14.01,2013-08-17 11:38:00,
2013-08-17 07:43:00,58.3,56.3,30.06,West,259,0.0,6.0,93,0.00,,,0.00,VWS V14.01,2013-08-17 11:43:00,
2013-08-17 07:48:00,58.6,56.6,30.06,North,5,0.0,6.0,93,0.00,,,0.00,VWS V14.01,2013-08-17 11:48:00,
2013-08-17 07:53:00,58.7,56.4,30.06,North,5,0.0,6.0,92,0.00,,,0.00,VWS V14.01,2013-08-17 11:53:00,
2013-08-17 07:58:00,58.7,56.4,30.06,North,5,0.0,6.0,92,0.00,,,0.00,VWS V14.01,2013-08-17 11:58:00,
2013-08-17 08:03:00,58.9,56.3,30.06,North,5,0.0,6.0,91,0.00,,,0.00,VWS V14.01,2013-08-17 12:03:00,
2013-08-17 08:08:00,59.0,56.1,30.06,North,5,1.0,6.0,90,0.00,,,0.00,VWS V14.01,2013-08-17 12:08:00,
2013-08-17 08:09:00,59.0,56.1,30.06,North,5,0.0,6.0,90,0.00,,,0.00,VWS V14.01,2013-08-17 12:09:00,
2013-08-17 08:14:00,59.2,56.0,30.06,NNW,346,0.0,6.0,89,0.00,,,0.00,VWS V14.01,2013-08-17 12:14:00,
2013-08-17 08:19:00,59.5,56.0,30.06,NNW,346,1.0,6.0,88,0.00,,,0.00,VWS V14.01,2013-08-17 12:19:00,
2013-08-17 08:24:00,59.6,55.7,30.07,NNE,22,0.0,6.0,87,0.00,,,0.00,VWS V14.01,2013-08-17 12:24:00,
2013-08-17 08:29:00,59.9,55.7,30.07,NNE,22,0.0,6.0,86,0.00,,,0.00,VWS V14.01,2013-08-17 12:29:00,
2013-08-17 08:34:00,60.1,55.6,30.07,West,263,0.0,6.0,85,0.00,,,0.00,VWS V14.01,2013-08-17 12:34:00,
2013-08-17 08:39:00,60.2,55.7,30.07,West,266,0.0,6.0,85,0.00,,,0.00,VWS V14.01,2013-08-17 12:39:00,
2013-08-17 08:44:00,60.4,55.9,30.07,West,266,0.0,6.0,85,0.00,,,0.00,VWS V14.01,2013-08-17 12:44:00,
2013-08-17 08:49:00,60.5,56.0,30.07,West,266,0.0,6.0,85,0.00,,,0.00,VWS V14.01,2013-08-17 12:49:00,
2013-08-17 08:54:00,60.5,56.0,30.08,West,266,0.0,6.0,85,0.00,,,0.00,VWS V14.01,2013-08-17 12:54:00,
2013-08-17 08:59:00,60.7,56.2,30.08,West,266,0.0,6.0,85,0.00,,,0.00,VWS V14.01,2013-08-17 12:59:00,
2013-08-17 09:04:00,60.9,56.0,30.08,North,5,0.0,6.0,84,0.00,,,0.00,VWS V14.01,2013-08-17 13:04:00,
2013-08-17 09:09:00,61.0,55.8,30.08,NNE,17,0.0,6.0,83,0.00,,,0.00,VWS V14.01,2013-08-17 13:09:00,
2013-08-17 09:14:00,61.3,56.4,30.08,NNE,17,0.0,6.0,84,0.00,,,0.00,VWS V14.01,2013-08-17 13:14:00,
2013-08-17 09:19:00,61.6,56.7,30.08,NNE,17,0.0,6.0,84,0.00,,,0.00,VWS V14.01,2013-08-17 13:19:00,
2013-08-17 09:24:00,61.8,56.2,30.08,NNE,17,0.0,6.0,82,0.00,,,0.00,VWS V14.01,2013-08-17 13:24:00,
2013-08-17 09:29:00,62.1,56.5,30.08,NNE,17,0.0,6.0,82,0.00,,,0.00,VWS V14.01,2013-08-17 13:29:00,
2013-08-17 09:34:00,62.3,56.4,30.08,West,274,0.0,6.0,81,0.00,,,0.00,VWS V14.01,2013-08-17 13:34:00,
2013-08-17 09:39:00,62.4,56.5,30.08,West,274,0.0,6.0,81,0.00,,,0.00,VWS V14.01,2013-08-17 13:39:00,
2013-08-17 09:44:00,62.7,56.8,30.08,NNW,342,0.0,6.0,81,0.00,,,0.00,VWS V14.01,2013-08-17 13:44:00,
2013-08-17 09:49:00,62.9,56.6,30.08,NNW,342,0.0,6.0,80,0.00,,,0.00,VWS V14.01,2013-08-17 13:49:00,
2013-08-17 09:54:00,63.2,57.3,30.08,NNW,342,2.0,6.0,81,0.00,,,0.00,VWS V14.01,2013-08-17 13:54:00,
2013-08-17 09:59:00,63.4,56.8,30.08,WNW,283,0.0,6.0,79,0.00,,,0.00,VWS V14.01,2013-08-17 13:59:00,
2013-08-17 10:04:00,63.7,56.7,30.08,WNW,286,0.0,6.0,78,0.00,,,0.00,VWS V14.01,2013-08-17 14:04:00,
2013-08-17 10:09:00,64.0,57.0,30.07,WNW,286,0.0,6.0,78,0.00,,,0.00,VWS V14.01,2013-08-17 14:09:00,
2013-08-17 10:14:00,64.2,55.4,30.07,NE,38,0.0,6.0,73,0.00,,,0.00,VWS V14.01,2013-08-17 14:14:00,
2013-08-17 10:19:00,64.3,56.6,30.07,SW,221,1.0,6.0,76,0.00,,,0.00,VWS V14.01,2013-08-17 14:19:00,
2013-08-17 10:24:00,64.7,56.2,30.08,NW,315,0.0,6.0,74,0.00,,,0.00,VWS V14.01,2013-08-17 14:24:00,
2013-08-17 10:29:00,64.8,56.7,30.08,NNE,18,3.0,6.0,75,0.00,,,0.00,VWS V14.01,2013-08-17 14:29:00,
2013-08-17 10:34:00,65.2,56.3,30.08,West,262,0.0,6.0,73,0.00,,,0.00,VWS V14.01,2013-08-17 14:34:00,
2013-08-17 10:39:00,65.5,57.0,30.08,West,261,3.0,6.0,74,0.00,,,0.00,VWS V14.01,2013-08-17 14:39:00,
2013-08-17 10:44:00,65.8,56.2,30.08,NW,319,3.0,6.0,71,0.00,,,0.00,VWS V14.01,2013-08-17 14:44:00,
2013-08-17 10:49:00,65.8,56.2,30.08,NNE,25,0.0,6.0,71,0.00,,,0.00,VWS V14.01,2013-08-17 14:49:00,
2013-08-17 10:54:00,66.0,56.3,30.09,WSW,255,5.0,6.0,71,0.00,,,0.00,VWS V14.01,2013-08-17 14:54:00,
2013-08-17 10:59:00,66.3,56.2,30.09,NNE,17,0.0,6.0,70,0.00,,,0.00,VWS V14.01,2013-08-17 14:59:00,
2013-08-17 11:04:00,66.6,56.1,30.09,NNE,17,0.0,6.0,69,0.00,,,0.00,VWS V14.01,2013-08-17 15:04:00,
2013-08-17 11:09:00,66.9,56.8,30.09,NNE,17,0.0,6.0,70,0.00,,,0.00,VWS V14.01,2013-08-17 15:09:00,
2013-08-17 11:15:00,67.3,57.2,30.09,WSW,242,1.0,6.0,70,0.00,,,0.00,VWS V14.01,2013-08-17 15:15:00,
2013-08-17 11:20:00,67.4,56.1,30.08,WSW,242,0.0,6.0,67,0.00,,,0.00,VWS V14.01,2013-08-17 15:20:00,
2013-08-17 11:25:00,67.8,56.5,30.08,NNW,331,2.0,6.0,67,0.00,,,0.00,VWS V14.01,2013-08-17 15:25:00,
2013-08-17 11:30:00,67.9,56.1,30.08,NNW,345,1.0,6.0,66,0.00,,,0.00,VWS V14.01,2013-08-17 15:30:00,
2013-08-17 11:35:00,67.9,55.7,30.08,NW,308,0.0,6.0,65,0.00,,,0.00,VWS V14.01,2013-08-17 15:35:00,
2013-08-17 11:40:00,68.1,57.2,30.08,WNW,284,0.0,6.0,68,0.00,,,0.00,VWS V14.01,2013-08-17 15:40:00,
2013-08-17 11:45:00,68.3,57.3,30.08,WNW,284,0.0,6.0,68,0.00,,,0.00,VWS V14.01,2013-08-17 15:45:00,
2013-08-17 11:50:00,68.6,55.1,30.07,WNW,284,0.0,6.0,62,0.00,,,0.00,VWS V14.01,2013-08-17 15:50:00,
2013-08-17 11:55:00,68.4,56.2,30.07,ENE,58,1.0,6.0,65,0.00,,,0.00,VWS V14.01,2013-08-17 15:55:00,
2013-08-17 12:00:00,68.4,56.6,30.07,NW,319,1.0,6.0,66,0.00,,,0.00,VWS V14.01,2013-08-17 16:00:00,
2013-08-17 12:05:00,68.6,56.4,30.06,NW,319,0.0,6.0,65,0.00,,,0.00,VWS V14.01,2013-08-17 16:05:00,
2013-08-17 12:10:00,68.8,55.7,30.06,North,5,0.0,6.0,63,0.00,,,0.00,VWS V14.01,2013-08-17 16:10:00,
2013-08-17 12:15:00,69.1,56.4,30.06,North,5,2.0,6.0,64,0.00,,,0.00,VWS V14.01,2013-08-17 16:15:00,
2013-08-17 12:20:00,69.6,55.6,30.06,North,5,0.0,6.0,61,0.00,,,0.00,VWS V14.01,2013-08-17 16:20:00,
2013-08-17 12:25:00,70.1,56.5,30.06,NNW,340,0.0,6.0,62,0.00,,,0.00,VWS V14.01,2013-08-17 16:25:00,
2013-08-17 12:30:00,70.1,56.0,30.06,West,273,0.0,6.0,61,0.00,,,0.00,VWS V14.01,2013-08-17 16:30:00,
2013-08-17 12:35:00,70.4,56.8,30.05,West,273,2.0,6.0,62,0.00,,,0.00,VWS V14.01,2013-08-17 16:35:00,
2013-08-17 12:40:00,70.6,56.1,30.05,West,273,0.0,6.0,60,0.00,,,0.00,VWS V14.01,2013-08-17 16:40:00,
2013-08-17 12:45:00,70.8,56.7,30.05,NW,308,1.0,6.0,61,0.00,,,0.00,VWS V14.01,2013-08-17 16:45:00,
2013-08-17 12:50:00,70.8,56.2,30.05,NNE,19,0.0,6.0,60,0.00,,,0.00,VWS V14.01,2013-08-17 16:50:00,
2013-08-17 12:55:00,70.9,56.8,30.05,NNE,19,0.0,6.0,61,0.00,,,0.00,VWS V14.01,2013-08-17 16:55:00,
2013-08-17 13:00:00,71.5,56.4,30.05,NE,45,0.0,6.0,59,0.00,,,0.00,VWS V14.01,2013-08-17 17:00:00,
2013-08-17 13:05:00,72.0,57.4,30.05,NNE,32,0.0,6.0,60,0.00,,,0.00,VWS V14.01,2013-08-17 17:05:00,
2013-08-17 13:10:00,72.3,57.2,30.05,North,355,1.0,6.0,59,0.00,,,0.00,VWS V14.01,2013-08-17 17:10:00,
2013-08-17 13:15:00,72.5,57.4,30.05,NNW,347,0.0,6.0,59,0.00,,,0.00,VWS V14.01,2013-08-17 17:15:00,
2013-08-17 13:20:00,72.5,56.9,30.04,WNW,298,1.0,6.0,58,0.00,,,0.00,VWS V14.01,2013-08-17 17:20:00,
2013-08-17 13:25:00,72.8,57.2,30.04,WNW,298,0.0,6.0,58,0.00,,,0.00,VWS V14.01,2013-08-17 17:25:00,
2013-08-17 13:30:00,72.7,57.1,30.04,East,92,0.0,6.0,58,0.00,,,0.00,VWS V14.01,2013-08-17 17:30:00,
2013-08-17 13:35:00,72.8,57.2,30.04,NE,53,0.0,6.0,58,0.00,,,0.00,VWS V14.01,2013-08-17 17:35:00,
2013-08-17 13:40:00,73.0,57.4,30.04,NW,323,1.0,6.0,58,0.00,,,0.00,VWS V14.01,2013-08-17 17:40:00,
2013-08-17 13:45:00,73.0,56.9,30.04,NW,325,0.0,6.0,57,0.00,,,0.00,VWS V14.01,2013-08-17 17:45:00,
2013-08-17 13:50:00,73.2,58.0,30.03,NW,325,1.0,6.0,59,0.00,,,0.00,VWS V14.01,2013-08-17 17:50:00,
2013-08-17 13:55:00,73.2,57.5,30.03,NW,326,0.0,6.0,58,0.00,,,0.00,VWS V14.01,2013-08-17 17:55:00,
2013-08-17 14:00:00,73.2,58.0,30.03,NW,326,1.0,6.0,59,0.00,,,0.00,VWS V14.01,2013-08-17 18:00:00,
2013-08-17 14:05:00,73.3,58.1,30.03,NE,55,0.0,6.0,59,0.00,,,0.00,VWS V14.01,2013-08-17 18:05:00,
2013-08-17 14:10:00,73.2,58.0,30.03,NNE,26,2.0,6.0,59,0.00,,,0.00,VWS V14.01,2013-08-17 18:10:00,
2013-08-17 14:15:00,73.0,58.3,30.03,North,5,0.0,6.0,60,0.00,,,0.00,VWS V14.01,2013-08-17 18:15:00,
2013-08-17 14:20:00,73.2,57.5,30.04,NNW,346,2.0,6.0,58,0.00,,,0.00,VWS V14.01,2013-08-17 18:20:00,
2013-08-17 14:25:00,73.3,57.7,30.04,North,9,1.0,6.0,58,0.00,,,0.00,VWS V14.01,2013-08-17 18:25:00,
2013-08-17 14:30:00,73.2,58.0,30.04,North,5,0.0,6.0,59,0.00,,,0.00,VWS V14.01,2013-08-17 18:30:00,
2013-08-17 14:35:00,73.2,57.5,30.04,NNW,344,0.0,6.0,58,0.00,,,0.00,VWS V14.01,2013-08-17 18:35:00,
2013-08-17 14:41:00,73.2,59.0,30.04,NNW,344,0.0,6.0,61,0.00,,,0.00,VWS V14.01,2013-08-17 18:41:00,
2013-08-17 14:46:00,73.2,58.5,30.04,NNW,344,0.0,6.0,60,0.00,,,0.00,VWS V14.01,2013-08-17 18:46:00,
2013-08-17 14:51:00,73.0,57.4,30.04,NNE,28,0.0,6.0,58,0.00,,,0.00,VWS V14.01,2013-08-17 18:51:00,
2013-08-17 14:56:00,73.0,59.2,30.04,NNE,28,0.0,6.0,62,0.00,,,0.00,VWS V14.01,2013-08-17 18:56:00,
2013-08-17 15:01:00,72.8,57.7,30.04,NNE,28,0.0,6.0,59,0.00,,,0.00,VWS V14.01,2013-08-17 19:01:00,
2013-08-17 15:06:00,72.8,58.6,30.04,NNE,28,0.0,6.0,61,0.00,,,0.00,VWS V14.01,2013-08-17 19:06:00,
2013-08-17 15:11:00,72.8,59.5,30.04,NNE,28,0.0,6.0,63,0.00,,,0.00,VWS V14.01,2013-08-17 19:11:00,
2013-08-17 15:16:00,73.0,59.2,30.04,NNE,28,0.0,6.0,62,0.00,,,0.00,VWS V14.01,2013-08-17 19:16:00,
2013-08-17 15:21:00,73.0,58.3,30.03,North,355,0.0,6.0,60,0.00,,,0.00,VWS V14.01,2013-08-17 19:21:00,
2013-08-17 15:26:00,73.0,59.2,30.03,North,355,0.0,6.0,62,0.00,,,0.00,VWS V14.01,2013-08-17 19:26:00,
2013-08-17 15:31:00,73.0,60.1,30.03,North,355,1.0,6.0,64,0.00,,,0.00,VWS V14.01,2013-08-17 19:31:00,
2013-08-17 15:36:00,73.0,59.7,30.02,North,355,0.0,6.0,63,0.00,,,0.00,VWS V14.01,2013-08-17 19:36:00,
2013-08-17 15:41:00,73.0,60.1,30.02,North,355,0.0,6.0,64,0.00,,,0.00,VWS V14.01,2013-08-17 19:41:00,
2013-08-17 15:46:00,73.0,60.1,30.02,North,355,0.0,6.0,64,0.00,,,0.00,VWS V14.01,2013-08-17 19:46:00,
2013-08-17 15:51:00,72.8,59.9,30.02,North,355,0.0,6.0,64,0.00,,,0.00,VWS V14.01,2013-08-17 19:51:00,
2013-08-17 15:56:00,72.8,59.9,30.02,North,355,1.0,6.0,64,0.00,,,0.00,VWS V14.01,2013-08-17 19:56:00,
2013-08-17 16:01:00,72.5,60.5,30.02,NE,51,0.0,6.0,66,0.00,,,0.00,VWS V14.01,2013-08-17 20:01:00,
2013-08-17 16:06:00,72.5,60.5,30.02,NE,51,0.0,6.0,66,0.00,,,0.00,VWS V14.01,2013-08-17 20:06:00,
2013-08-17 16:11:00,72.5,60.5,30.02,NE,51,0.0,6.0,66,0.00,,,0.00,VWS V14.01,2013-08-17 20:11:00,
2013-08-17 16:16:00,72.1,61.0,30.02,NE,51,0.0,6.0,68,0.00,,,0.00,VWS V14.01,2013-08-17 20:16:00,
2013-08-17 16:21:00,71.6,60.9,30.02,NE,51,0.0,6.0,69,0.00,,,0.00,VWS V14.01,2013-08-17 20:21:00,
2013-08-17 16:26:00,71.3,61.4,30.02,NE,51,0.0,6.0,71,0.00,,,0.00,VWS V14.01,2013-08-17 20:26:00,
2013-08-17 16:31:00,71.3,61.4,30.02,NE,51,0.0,6.0,71,0.00,,,0.00,VWS V14.01,2013-08-17 20:31:00,
2013-08-17 16:36:00,71.5,61.6,30.03,NE,51,0.0,6.0,71,0.00,,,0.00,VWS V14.01,2013-08-17 20:36:00,
2013-08-17 16:41:00,71.6,62.1,30.03,NE,51,0.0,6.0,72,0.00,,,0.00,VWS V14.01,2013-08-17 20:41:00,
2013-08-17 16:46:00,71.5,62.0,30.03,NE,51,0.0,6.0,72,0.00,,,0.00,VWS V14.01,2013-08-17 20:46:00,
2013-08-17 16:51:00,71.5,62.0,30.01,NE,51,0.0,6.0,72,0.00,,,0.00,VWS V14.01,2013-08-17 20:51:00,
2013-08-17 16:56:00,71.5,62.4,30.01,NE,51,0.0,6.0,73,0.00,,,0.00,VWS V14.01,2013-08-17 20:56:00,
2013-08-17 17:01:00,71.6,61.7,30.01,NE,51,0.0,6.0,71,0.00,,,0.00,VWS V14.01,2013-08-17 21:01:00,
2013-08-17 17:07:00,71.8,61.5,30.02,NE,51,0.0,6.0,70,0.00,,,0.00,VWS V14.01,2013-08-17 21:07:00,
2013-08-17 17:12:00,71.8,61.9,30.02,NE,51,0.0,6.0,71,0.00,,,0.00,VWS V14.01,2013-08-17 21:12:00,
2013-08-17 17:17:00,71.6,62.5,30.02,NE,51,0.0,6.0,73,0.00,,,0.00,VWS V14.01,2013-08-17 21:17:00,
2013-08-17 17:22:00,71.5,62.0,30.02,NE,51,0.0,6.0,72,0.00,,,0.00,VWS V14.01,2013-08-17 21:22:00,
2013-08-17 17:27:00,71.6,61.7,30.02,NE,51,0.0,6.0,71,0.00,,,0.00,VWS V14.01,2013-08-17 21:27:00,
2013-08-17 17:32:00,71.5,62.4,30.02,NE,51,0.0,6.0,73,0.00,,,0.00,VWS V14.01,2013-08-17 21:32:00,
2013-08-17 17:37:00,71.3,62.6,30.02,NE,51,0.0,6.0,74,0.00,,,0.00,VWS V14.01,2013-08-17 21:37:00,
2013-08-17 17:42:00,71.5,62.8,30.02,NE,51,0.0,6.0,74,0.00,,,0.00,VWS V14.01,2013-08-17 21:42:00,
2013-08-17 17:47:00,71.6,62.9,30.02,NE,51,0.0,6.0,74,0.00,,,0.00,VWS V14.01,2013-08-17 21:47:00,
2013-08-17 17:52:00,71.6,62.5,30.03,NE,51,0.0,6.0,73,0.00,,,0.00,VWS V14.01,2013-08-17 21:52:00,
2013-08-17 17:57:00,71.3,62.6,30.03,NE,51,0.0,6.0,74,0.00,,,0.00,VWS V14.01,2013-08-17 21:57:00,
2013-08-17 18:02:00,70.9,62.6,30.03,NE,51,0.0,6.0,75,0.00,,,0.00,VWS V14.01,2013-08-17 22:02:00,
2013-08-17 18:07:00,70.6,62.7,30.01,NE,51,0.0,6.0,76,0.00,,,0.00,VWS V14.01,2013-08-17 22:07:00,
2013-08-17 18:12:00,70.8,63.2,30.01,NE,42,0.0,6.0,77,0.00,,,0.00,VWS V14.01,2013-08-17 22:12:00,
2013-08-17 18:17:00,70.9,63.3,30.01,NE,42,0.0,6.0,77,0.00,,,0.00,VWS V14.01,2013-08-17 22:17:00,
2013-08-17 18:22:00,70.9,63.0,30.03,NE,42,0.0,6.0,76,0.00,,,0.00,VWS V14.01,2013-08-17 22:22:00,
2013-08-17 18:27:00,70.8,63.6,30.03,NE,42,0.0,6.0,78,0.00,,,0.00,VWS V14.01,2013-08-17 22:27:00,
2013-08-17 18:32:00,70.8,63.6,30.03,NE,42,0.0,6.0,78,0.00,,,0.00,VWS V14.01,2013-08-17 22:32:00,
2013-08-17 18:37:00,70.8,63.6,30.03,NE,42,0.0,6.0,78,0.00,,,0.00,VWS V14.01,2013-08-17 22:37:00,
2013-08-17 18:42:00,70.4,63.2,30.03,NE,42,0.0,6.0,78,0.00,,,0.00,VWS V14.01,2013-08-17 22:42:00,
2013-08-17 18:47:00,69.9,63.5,30.03,NE,42,0.0,6.0,80,0.00,,,0.00,VWS V14.01,2013-08-17 22:47:00,
2013-08-17 18:52:00,69.6,63.5,30.02,NE,42,0.0,6.0,81,0.00,,,0.00,VWS V14.01,2013-08-17 22:52:00,
2013-08-17 18:57:00,69.3,63.2,30.02,NNE,28,0.0,6.0,81,0.00,,,0.00,VWS V14.01,2013-08-17 22:57:00,
2013-08-17 19:02:00,69.3,62.9,30.02,West,281,0.0,6.0,80,0.00,,,0.00,VWS V14.01,2013-08-17 23:02:00,
2013-08-17 19:07:00,69.4,63.0,30.03,West,281,0.0,6.0,80,0.00,,,0.00,VWS V14.01,2013-08-17 23:07:00,
2013-08-17 19:12:00,69.4,63.0,30.03,West,281,0.0,6.0,80,0.00,,,0.00,VWS V14.01,2013-08-17 23:12:00,
2013-08-17 19:17:00,69.4,63.3,30.03,West,281,0.0,6.0,81,0.00,,,0.00,VWS V14.01,2013-08-17 23:17:00,
2013-08-17 19:22:00,69.4,63.3,30.02,West,281,0.0,6.0,81,0.00,,,0.00,VWS V14.01,2013-08-17 23:22:00,
2013-08-17 19:27:00,69.3,63.2,30.02,West,281,0.0,6.0,81,0.00,,,0.00,VWS V14.01,2013-08-17 23:27:00,
2013-08-17 19:32:00,69.3,63.2,30.02,West,281,0.0,6.0,81,0.00,,,0.00,VWS V14.01,2013-08-17 23:32:00,
2013-08-17 19:37:00,69.3,63.2,30.02,West,281,0.0,6.0,81,0.00,,,0.00,VWS V14.01,2013-08-17 23:37:00,
2013-08-17 19:42:00,69.3,63.6,30.02,West,281,0.0,6.0,82,0.00,,,0.00,VWS V14.01,2013-08-17 23:42:00,
2013-08-17 19:47:00,69.3,63.2,30.02,West,281,0.0,6.0,81,0.00,,,0.00,VWS V14.01,2013-08-17 23:47:00,
2013-08-17 19:52:00,69.3,63.2,30.03,West,281,0.0,6.0,81,0.00,,,0.00,VWS V14.01,2013-08-17 23:52:00,
2013-08-17 19:57:00,69.1,63.4,30.03,West,281,0.0,6.0,82,0.00,,,0.00,VWS V14.01,2013-08-17 23:57:00,
2013-08-17 20:02:00,69.1,63.4,30.03,West,281,0.0,6.0,82,0.00,,,0.00,VWS V14.01,2013-08-18 00:02:00,
2013-08-17 20:08:00,68.9,63.2,30.03,West,281,0.0,6.0,82,0.00,,,0.00,VWS V14.01,2013-08-18 00:08:00,
2013-08-17 20:13:00,68.8,63.4,30.03,West,281,0.0,6.0,83,0.00,,,0.00,VWS V14.01,2013-08-18 00:13:00,
2013-08-17 20:18:00,68.6,63.6,30.03,West,281,0.0,6.0,84,0.00,,,0.00,VWS V14.01,2013-08-18 00:18:00,
2013-08-17 20:23:00,68.4,63.4,30.02,West,281,1.0,6.0,84,0.00,,,0.00,VWS V14.01,2013-08-18 00:23:00,
2013-08-17 20:28:00,68.4,63.0,30.02,NW,304,0.0,6.0,83,0.00,,,0.00,VWS V14.01,2013-08-18 00:28:00,
2013-08-17 20:33:00,68.4,62.7,30.02,NW,304,0.0,6.0,82,0.00,,,0.00,VWS V14.01,2013-08-18 00:33:00,
2013-08-17 20:38:00,68.4,62.7,30.03,NW,304,0.0,6.0,82,0.00,,,0.00,VWS V14.01,2013-08-18 00:38:00,
2013-08-17 20:43:00,68.3,62.2,30.03,NW,304,0.0,6.0,81,0.00,,,0.00,VWS V14.01,2013-08-18 00:43:00,
2013-08-17 20:48:00,68.3,62.2,30.03,NW,304,0.0,6.0,81,0.00,,,0.00,VWS V14.01,2013-08-18 00:48:00,
2013-08-17 20:53:00,68.3,62.2,30.04,NW,323,0.0,6.0,81,0.00,,,0.00,VWS V14.01,2013-08-18 00:53:00,
2013-08-17 20:58:00,68.3,62.2,30.04,NW,323,0.0,6.0,81,0.00,,,0.00,VWS V14.01,2013-08-18 00:58:00,
2013-08-17 21:03:00,68.1,62.4,30.04,NW,323,0.0,6.0,82,0.00,,,0.00,VWS V14.01,2013-08-18 01:03:00,
2013-08-17 21:08:00,68.1,62.4,30.03,NW,323,0.0,6.0,82,0.00,,,0.00,VWS V14.01,2013-08-18 01:08:00,
2013-08-17 21:13:00,67.9,62.2,30.03,NW,323,0.0,6.0,82,0.00,,,0.00,VWS V14.01,2013-08-18 01:13:00,
2013-08-17 21:18:00,67.9,62.2,30.03,NW,323,0.0,6.0,82,0.00,,,0.00,VWS V14.01,2013-08-18 01:18:00,
2013-08-17 21:23:00,67.8,62.1,30.02,NW,323,0.0,6.0,82,0.00,,,0.00,VWS V14.01,2013-08-18 01:23:00,
2013-08-17 21:28:00,67.8,62.5,30.02,NW,323,0.0,6.0,83,0.00,,,0.00,VWS V14.01,2013-08-18 01:28:00,
2013-08-17 21:33:00,67.8,62.5,30.02,NW,325,3.0,6.0,83,0.00,,,0.00,VWS V14.01,2013-08-18 01:33:00,
2013-08-17 21:38:00,67.6,62.3,30.02,NE,45,0.0,6.0,83,0.00,,,0.00,VWS V14.01,2013-08-18 01:38:00,
2013-08-17 21:43:00,67.6,62.6,30.02,NNW,327,0.0,6.0,84,0.00,,,0.00,VWS V14.01,2013-08-18 01:43:00,
2013-08-17 21:48:00,67.4,62.4,30.02,NNW,327,0.0,6.0,84,0.00,,,0.00,VWS V14.01,2013-08-18 01:48:00,
2013-08-17 21:53:00,67.3,62.3,30.03,NNW,327,0.0,6.0,84,0.00,,,0.00,VWS V14.01,2013-08-18 01:53:00,
2013-08-17 21:58:00,67.1,62.5,30.03,NNW,327,0.0,6.0,85,0.00,,,0.00,VWS V14.01,2013-08-18 01:58:00,
2013-08-17 22:03:00,66.9,62.6,30.03,NNW,327,0.0,6.0,86,0.00,,,0.00,VWS V14.01,2013-08-18 02:03:00,
2013-08-17 22:08:00,66.6,62.3,30.04,NNW,327,0.0,6.0,86,0.00,,,0.00,VWS V14.01,2013-08-18 02:08:00,
2013-08-17 22:13:00,66.6,62.3,30.04,NNW,327,0.0,6.0,86,0.00,,,0.00,VWS V14.01,2013-08-18 02:13:00,
2013-08-17 22:18:00,66.4,62.1,30.04,NNW,327,0.0,6.0,86,0.00,,,0.00,VWS V14.01,2013-08-18 02:18:00,
2013-08-17 22:23:00,66.4,62.4,30.04,NNW,327,0.0,6.0,87,0.00,,,0.00,VWS V14.01,2013-08-18 02:23:00,
2013-08-17 22:28:00,66.3,62.3,30.04,NNW,327,0.0,6.0,87,0.00,,,0.00,VWS V14.01,2013-08-18 02:28:00,
2013-08-17 22:33:00,66.3,62.6,30.04,NNW,327,0.0,6.0,88,0.00,,,0.00,VWS V14.01,2013-08-18 02:33:00,
2013-08-17 22:38:00,66.3,62.3,30.04,NNW,327,0.0,6.0,87,0.00,,,0.00,VWS V14.01,2013-08-18 02:38:00,
2013-08-17 22:43:00,66.1,62.5,30.04,NNW,327,0.0,6.0,88,0.00,,,0.00,VWS V14.01,2013-08-18 02:43:00,
2013-08-17 22:48:00,66.1,62.5,30.04,NNW,327,0.0,6.0,88,0.00,,,0.00,VWS V14.01,2013-08-18 02:48:00,
2013-08-17 22:53:00,66.0,62.0,30.05,NNW,327,0.0,6.0,87,0.00,,,0.00,VWS V14.01,2013-08-18 02:53:00,
2013-08-17 22:58:00,66.0,62.3,30.05,NNW,327,0.0,6.0,88,0.00,,,0.00,VWS V14.01,2013-08-18 02:58:00,
2013-08-17 23:03:00,66.0,62.0,30.05,NNW,327,0.0,6.0,87,0.00,,,0.00,VWS V14.01,2013-08-18 03:03:00,
2013-08-17 23:08:00,66.0,62.0,30.05,NNW,327,0.0,6.0,87,0.00,,,0.00,VWS V14.01,2013-08-18 03:08:00,
2013-08-17 23:13:00,66.0,62.3,30.05,NNW,327,0.0,6.0,88,0.00,,,0.00,VWS V14.01,2013-08-18 03:13:00,
2013-08-17 23:19:00,66.0,62.0,30.05,NNW,327,0.0,6.0,87,0.00,,,0.00,VWS V14.01,2013-08-18 03:19:00,
2013-08-17 23:24:00,66.0,62.3,30.04,NNW,327,0.0,6.0,88,0.00,,,0.00,VWS V14.01,2013-08-18 03:24:00,
2013-08-17 23:29:00,66.0,62.0,30.04,NNW,327,1.0,6.0,87,0.00,,,0.00,VWS V14.01,2013-08-18 03:29:00,
2013-08-17 23:34:00,65.8,61.8,30.04,NNW,327,0.0,6.0,87,0.00,,,0.00,VWS V14.01,2013-08-18 03:34:00,
2013-08-17 23:39:00,65.8,62.2,30.05,NNW,327,0.0,6.0,88,0.00,,,0.00,VWS V14.01,2013-08-18 03:39:00,
2013-08-17 23:44:00,65.8,62.2,30.05,NNW,327,0.0,6.0,88,0.00,,,0.00,VWS V14.01,2013-08-18 03:44:00,
2013-08-17 23:49:00,65.6,62.0,30.05,NNW,327,1.0,6.0,88,0.00,,,0.00,VWS V14.01,2013-08-18 03:49:00,
2013-08-17 23:54:00,65.5,62.2,30.05,NNW,327,0.0,6.0,89,0.00,,,0.00,VWS V14.01,2013-08-18 03:54:00,
2013-08-17 23:59:00,65.3,62.0,30.05,NNW,327,0.0,6.0,89,0.00,,,0.00,VWS V14.01,2013-08-18 03:59:00,